Romeoville, IL

10:42 PM CDT on May 28, 2017 (GMT -0500)
Lewis University

Weather History for KLOT - June, 2013

Change the Weather History Date:

Tuesday, June 18, 2013

  Actual Average Record
Temperature  
Mean Temperature 65 °F 71 °F  
Max Temperature 73 °F 81 °F 93 °F (2001)
Min Temperature 56 °F 61 °F 48 °F (1999)
Degree Days  
Heating Degree Days 0 1  
Month to date heating degree days 35 30  
Since 1 June heating degree days 35 30  
Since 1 July heating degree days 6171 6216  
Cooling Degree Days 0 6  
Month to date cooling degree days 61 86  
Year to date cooling degree days 164 144  
Since 1 June cooling degree days 61 86  
Growing Degree Days 14 (Base 50)    
Moisture  
Dew Point 53 °F    
Average Humidity 72    
Maximum Humidity 96    
Minimum Humidity 53    
Precipitation  
Precipitation 0.00 in 0.14 in 1.32 in (2014)
Month to date precipitation 2.30 2.78  
Year to date precipitation 23.29 17.48  
Sea Level Pressure  
Sea Level Pressure 30.00 in    
Wind  
Wind Speed 10 mph (NE)    
Max Wind Speed 20 mph    
Max Gust Speed 21 mph    
Visibility 10 miles    
Events      
T = Trace of Precipitation, MM = Missing Value Source: NWS Daily Summary

Daily Weather History Graph

Daily Weather History Graph

Search for Another Location

Airport or City:

Trip Planner

Search our weather history database for the weather conditions in past years. The results will help you decide how hot, cold, wet, or windy it might be!

Date:

Astronomy

Jun. 18, 2013 Rise Set
Actual Time 5:17 AM CDT 8:29 PM CDT
Civil Twilight 4:43 AM CDT 9:03 PM CDT
Nautical Twilight 3:59 AM CDT 9:47 PM CDT
Astronomical Twilight 3:07 AM CDT 10:40 PM CDT
Moon 3:10 PM CDT (6/18) 1:29 AM CDT (6/18)
Length of Visible Light 16h 19m
Length of Day
15h 11m
Waxing Gibbous, 71% of the Moon is Illuminated
Jun 18
Waxing Gibbous
Jun 23
Full
Jun 29
Last Quarter
Jul 8
New
Jul 15
First Quarter

Hourly Weather History & Observations

Time (CDT) Temp. Dew Point Humidity Pressure Visibility Wind Dir Wind Speed Gust Speed Precip Events Conditions
12:15 AM 61.0 °F 54.9 °F 80% 29.92 in 10.0 mi NE 5.8 mph - N/A   Scattered Clouds
12:35 AM 61.3 °F 55.0 °F 80% 29.92 in 10.0 mi NNE 6.9 mph - N/A   Overcast
12:55 AM 61.3 °F 55.2 °F 80% 29.92 in 10.0 mi Calm Calm - N/A   Overcast
1:15 AM 60.8 °F 54.9 °F 81% 29.92 in 10.0 mi NE 10.4 mph - N/A   Mostly Cloudy
1:35 AM 60.8 °F 54.5 °F 80% 29.92 in 10.0 mi NE 12.7 mph - N/A   Clear
1:55 AM 60.1 °F 54.1 °F 81% 29.92 in 10.0 mi NE 11.5 mph - N/A   Clear
2:15 AM 59.9 °F 54.0 °F 81% 29.92 in 10.0 mi NE 9.2 mph - N/A   Scattered Clouds
2:35 AM 59.5 °F 53.4 °F 80% 29.93 in 10.0 mi NNE 8.1 mph - N/A   Mostly Cloudy
2:55 AM 59.4 °F 52.5 °F 78% 29.94 in 10.0 mi NE 8.1 mph - N/A   Mostly Cloudy
3:15 AM 59.0 °F 52.2 °F 78% 29.93 in 10.0 mi NE 6.9 mph - N/A   Mostly Cloudy
3:35 AM 58.1 °F 52.2 °F 81% 29.93 in 10.0 mi NE 8.1 mph - N/A   Scattered Clouds
3:55 AM 57.9 °F 52.3 °F 82% 29.94 in 10.0 mi NE 5.8 mph - N/A   Clear
4:15 AM 57.2 °F 52.7 °F 85% 29.94 in 10.0 mi NE 4.6 mph - N/A   Clear
4:35 AM 56.8 °F 52.9 °F 87% 29.94 in 10.0 mi NE 6.9 mph - N/A   Clear
4:55 AM 57.2 °F 53.1 °F 86% 29.95 in 10.0 mi NNE 8.1 mph - N/A   Clear
5:15 AM 57.0 °F 53.1 °F 87% 29.95 in 10.0 mi NNE 13.8 mph - N/A   Scattered Clouds
5:35 AM 56.8 °F 53.4 °F 88% 29.96 in 10.0 mi NNE 6.9 mph - N/A   Scattered Clouds
5:55 AM 57.2 °F 53.6 °F 88% 29.97 in 10.0 mi NE 10.4 mph - N/A   Scattered Clouds
6:15 AM 57.2 °F 53.8 °F 88% 29.98 in 10.0 mi NE 10.4 mph - N/A   Clear
6:35 AM 57.6 °F 55.2 °F 92% 29.99 in 10.0 mi NNE 11.5 mph - N/A   Mostly Cloudy
6:55 AM 57.6 °F 56.3 °F 96% 30.00 in 3.0 mi NE 13.8 mph - N/A   Overcast
7:15 AM 58.1 °F 56.8 °F 96% 30.00 in 4.0 mi NNE 13.8 mph - N/A   Overcast
7:35 AM 59.2 °F 57.4 °F 94% 30.00 in 5.0 mi ENE 11.5 mph - N/A   Overcast
7:55 AM 59.9 °F 57.4 °F 91% 30.01 in 5.0 mi NE 16.1 mph 19.6 mph N/A   Overcast
8:15 AM 59.9 °F 57.2 °F 91% 30.01 in 7.0 mi NE 13.8 mph 20.7 mph N/A   Overcast
8:35 AM 60.3 °F 57.2 °F 90% 30.01 in 10.0 mi NE 12.7 mph 18.4 mph N/A   Overcast
8:55 AM 59.7 °F 56.3 °F 88% 30.02 in 10.0 mi NE 13.8 mph - N/A   Overcast
9:15 AM 60.8 °F 56.7 °F 86% 30.01 in 10.0 mi NE 11.5 mph 19.6 mph N/A   Overcast
9:35 AM 60.4 °F 56.7 °F 87% 30.01 in 10.0 mi NE 13.8 mph - N/A   Overcast
9:55 AM 62.1 °F 56.5 °F 82% 30.01 in 10.0 mi NE 11.5 mph - N/A   Overcast
10:15 AM 62.8 °F 56.3 °F 79% 30.01 in 10.0 mi NNE 16.1 mph - N/A   Overcast
10:35 AM 63.3 °F 56.8 °F 79% 30.01 in 10.0 mi NE 12.7 mph - N/A   Overcast
10:55 AM 63.7 °F 56.3 °F 77% 30.01 in 7.0 mi ENE 11.5 mph - N/A   Overcast
11:15 AM 65.1 °F 57.2 °F 75% 30.02 in 10.0 mi ENE 12.7 mph - N/A   Scattered Clouds
11:35 AM 65.5 °F 56.5 °F 73% 30.02 in 10.0 mi ENE 10.4 mph - N/A   Mostly Cloudy
11:55 AM 66.2 °F 56.8 °F 72% 30.02 in 10.0 mi NE 11.5 mph - N/A   Mostly Cloudy
12:15 PM 67.5 °F 57.9 °F 71% 30.03 in 10.0 mi NE 10.4 mph 16.1 mph N/A   Mostly Cloudy
12:35 PM 68.5 °F 57.7 °F 68% 30.02 in 10.0 mi ENE 15.0 mph - N/A   Overcast
12:55 PM 68.4 °F 57.6 °F 68% 30.02 in 10.0 mi ENE 12.7 mph - N/A   Mostly Cloudy
1:15 PM 70.0 °F 57.4 °F 64% 30.02 in 10.0 mi East 15.0 mph 18.4 mph N/A   Scattered Clouds
1:35 PM 70.3 °F 56.1 °F 61% 30.03 in 10.0 mi NE 11.5 mph - N/A   Scattered Clouds
1:55 PM 70.7 °F 55.9 °F 59% 30.02 in 10.0 mi ENE 13.8 mph - N/A   Scattered Clouds
2:15 PM 71.6 °F 56.3 °F 58% 30.02 in 10.0 mi ENE 12.7 mph 18.4 mph N/A   Scattered Clouds
2:35 PM 71.8 °F 56.1 °F 58% 30.02 in 10.0 mi ENE 12.7 mph - N/A   Scattered Clouds
2:55 PM 71.6 °F 55.0 °F 56% 30.02 in 10.0 mi NE 13.8 mph - N/A   Clear
3:15 PM 71.8 °F 55.2 °F 56% 30.02 in 10.0 mi East 15.0 mph - N/A   Clear
3:35 PM 72.5 °F 55.0 °F 54% 30.02 in 10.0 mi NE 12.7 mph - N/A   Clear
3:55 PM 71.8 °F 54.7 °F 55% 30.01 in 10.0 mi NNE 16.1 mph - N/A   Clear
4:15 PM 71.6 °F 54.3 °F 54% 30.01 in 10.0 mi NNE 13.8 mph 18.4 mph N/A   Clear
4:35 PM 71.8 °F 53.8 °F 53% 30.01 in 10.0 mi NE 13.8 mph - N/A   Clear
4:55 PM 71.1 °F 53.6 °F 54% 30.01 in 10.0 mi ENE 15.0 mph - N/A   Clear
5:15 PM 71.4 °F 54.0 °F 54% 30.01 in 10.0 mi NE 13.8 mph - N/A   Clear
5:35 PM 70.7 °F 53.4 °F 54% 30.02 in 10.0 mi NE 12.7 mph - N/A   Clear
5:55 PM 69.8 °F 52.9 °F 55% 30.02 in 10.0 mi ENE 15.0 mph - N/A   Clear
6:15 PM 69.4 °F 53.2 °F 56% 30.02 in 10.0 mi ENE 16.1 mph 19.6 mph N/A   Clear
6:35 PM 68.2 °F 52.7 °F 58% 30.03 in 10.0 mi ENE 15.0 mph - N/A   Clear
6:55 PM 67.3 °F 52.0 °F 58% 30.03 in 10.0 mi NE 18.4 mph - N/A   Clear
7:15 PM 65.8 °F 50.7 °F 58% 30.03 in 10.0 mi ENE 19.6 mph - N/A   Clear
7:35 PM 64.8 °F 49.5 °F 58% 30.04 in 10.0 mi NE 17.3 mph 20.7 mph N/A   Clear
7:55 PM 63.5 °F 48.4 °F 58% 30.04 in 10.0 mi NE 12.7 mph - N/A   Clear
8:15 PM 62.4 °F 47.5 °F 58% 30.04 in 10.0 mi NE 15.0 mph - N/A   Clear
8:35 PM 61.7 °F 45.9 °F 56% 30.04 in 10.0 mi NE 16.1 mph - N/A   Clear
8:55 PM 61.0 °F 45.7 °F 57% 30.05 in 10.0 mi NE 15.0 mph 18.4 mph N/A   Clear
9:15 PM 60.4 °F 45.3 °F 57% 30.05 in 10.0 mi NE 12.7 mph - N/A   Clear
9:35 PM 59.5 °F 45.5 °F 60% 30.06 in 10.0 mi NE 11.5 mph - N/A   Clear
9:55 PM 58.6 °F 46.0 °F 63% 30.07 in 10.0 mi NNE 9.2 mph - N/A   Clear
10:15 PM 58.3 °F 45.7 °F 63% 30.07 in 10.0 mi NE 11.5 mph - N/A   Clear
10:35 PM 57.7 °F 45.9 °F 65% 30.07 in 10.0 mi NNE 9.2 mph - N/A   Clear
10:55 PM 57.0 °F 46.4 °F 68% 30.07 in 10.0 mi NE 9.2 mph - N/A   Clear
11:15 PM 56.7 °F 46.4 °F 69% 30.06 in 10.0 mi NE 9.2 mph - N/A   Clear
11:35 PM 55.9 °F 46.6 °F 71% 30.06 in 10.0 mi NNE 9.2 mph - N/A   Clear
11:55 PM 56.5 °F 46.6 °F 69% 30.06 in 10.0 mi NNE 10.4 mph - N/A   Clear